Skip Page Navigation
NASA JPL Caltech
NASA Logo - Jet Propulsion Laboratory + View the NASA Portal
+ Center for Near-Earth Object Studies
JPL Home Earth Solar System Stars & Galaxies Technology
JPL Solar System Dynamics
BODIES ORBITS EPHEMERIDES TOOLS PHYSICAL DATA DISCOVERY FAQ SITE MAP
IMPORTANT: The SSD Announcement email list is now available. Major changes are coming in the near future, including possible hostname and/or URL changes. To be notified of such changes, subscribe to this email list.

Please visit this page for more details.


JPL Small-Body Database Browser
Search: [ help ]  
344788 (2003 XG34)
Classification: Main-belt Asteroid          SPK-ID: 2344788
Ephemeris | Orbit Diagram | Orbital Elements | Mission Design | Physical Parameters | Discovery Circumstances | Close-Approach Data ]

[ show orbit diagram ]
Orbital Elements at Epoch 2458600.5 (2019-Apr-27.0) TDB
Reference: JPL 7 (heliocentric ecliptic J2000)
 Element Value Uncertainty (1-sigma)   Units 
e .1016652055772182 1.4302e-07  
a 2.782056925160083 6.1578e-08 au
q 2.49921853593616 4.32e-07 au
i 4.421068721325201 1.2661e-05 deg
node 72.02103494187466 0.00015003 deg
peri 317.6117167426232 0.0001613 deg
M 147.2383158785568 6.0723e-05 deg
tp 2457907.288457339755
(2017-Jun-02.78845734)
0.00027536 TDB
period 1694.913133640592
4.64
5.6273e-05
1.541e-07
d
yr
n .212400265745028 7.0519e-09 deg/d
Q 3.064895314384007 6.7839e-08 au
  Orbit Determination Parameters
   # obs. used (total)      62  
   data-arc span      5135 days (14.06 yr)  
   first obs. used      2003-11-24  
   last obs. used      2017-12-15  
   planetary ephem.      DE431  
   SB-pert. ephem.      SB431-N16  
   condition code      0  
   norm. resid. RMS      .5525  
   source      ORB  
   producer      Otto Matic  
   solution date      2019-Jul-14 13:15:18  

Additional Information
 Earth MOID = 1.50612 au 
 Jupiter MOID = 2.34822 au 
 T_jup = 3.321 
[ show covariance matrix ]

Ephemeris | Orbit Diagram | Orbital Elements | Mission Design | Physical Parameters | Discovery Circumstances | Close-Approach Data ]

Physical Parameter Table
Parameter Symbol Value Units Sigma Reference Notes
absolute magnitude H 17.1   n/a MPO434170  

344788 (2003 XG34)          Discovered 2003-Dec-01 by Spacewatch at Kitt Peak
Reference: 20121128/Numbers.arcLast Updated: 2012-12-03

[ show close-approach data ]
Alternate Designations
 2003 XG34 = 2009 AC5 
Ephemeris | Orbit Diagram | Orbital Elements | Mission Design | Physical Parameters | Discovery Circumstances | Close-Approach Data ]
ABOUT SSD CREDITS/AWARDS PRIVACY/COPYRIGHT GLOSSARY LINKS
FirstGov 2019-Dec-11 20:30 UT
(server date/time)  
NASA Home Page
Site Manager:   Ryan S. Park
Webmaster  Alan B. Chamberlin